• In Belarus
  • List of Countries
  • For 7 days
  • Water Temperature
  • Satellite Maps
  • Weather Map
  • Weather Widgets
  • user-avatar
    Login

    Hourly Weather Baden-Baden

    Today, 22 September, Saturday

    Time Temperature Precipitation Wind Pressure Humidity
    00:00 +10°C° 0 mm 2 mps 734 mmHg 78%
    01:00 +10°C° 0 mm 3 mps 734 mmHg 77%
    02:00 +10°C° 0 mm 3 mps 735 mmHg 77%
    03:00 +10°C° 0 mm 2 mps 735 mmHg 77%
    04:00 +9°C° 0 mm 2 mps 735 mmHg 78%
    05:00 +9°C° 0 mm 2 mps 735 mmHg 78%
    06:00 +9°C° 0 mm 2 mps 735 mmHg 77%
    07:00 +10°C° 0 mm 2 mps 736 mmHg 78%
    08:00 +12°C° 0 mm 2 mps 736 mmHg 70%
    09:00 +13°C° 0 mm 2 mps 736 mmHg 63%
    10:00 +14°C° 0 mm 3 mps 736 mmHg 55%
    11:00 +16°C° 0 mm 3 mps 735 mmHg 50%
    12:00 +17°C° 0 mm 3 mps 735 mmHg 45%
    13:00 +19°C° 0 mm 3 mps 734 mmHg 40%
    14:00 +18°C° 0 mm 3 mps 734 mmHg 41%
    15:00 +18°C° 0 mm 3 mps 734 mmHg 41%
    16:00 +18°C° 0 mm 3 mps 734 mmHg 42%
    17:00 +17°C° 0.1 mm 2 mps 733 mmHg 49%
    18:00 +15°C° 0.1 mm 1 mps 733 mmHg 57%
    19:00 +14°C° 0.1 mm 1 mps 733 mmHg 64%
    20:00 +13°C° 0.2 mm 1 mps 733 mmHg 68%
    21:00 +13°C° 0.2 mm 1 mps 733 mmHg 72%
    22:00 +13°C° 0.2 mm 1 mps 733 mmHg 77%
    23:00 +13°C° 0.1 mm 2 mps 733 mmHg 77%

    Tomorrow, 23 September, Sunday

    Time Temperature Precipitation Wind Pressure Humidity
    00:00 +13°C° 0.1 mm 2 mps 732 mmHg 78%
    01:00 +13°C° 0.1 mm 2 mps 732 mmHg 79%
    02:00 +12°C° 0.3 mm 3 mps 731 mmHg 78%
    03:00 +13°C° 0.3 mm 3 mps 731 mmHg 78%
    04:00 +13°C° 0.3 mm 3 mps 730 mmHg 78%
    05:00 +14°C° 0.1 mm 4 mps 730 mmHg 78%
    06:00 +14°C° 0.1 mm 5 mps 730 mmHg 78%
    07:00 +15°C° 0.1 mm 5 mps 729 mmHg 79%
    08:00 +16°C° 0.1 mm 6 mps 729 mmHg 78%
    09:00 +17°C° 0.1 mm 6 mps 729 mmHg 77%
    10:00 +18°C° 0.1 mm 7 mps 729 mmHg 76%
    11:00 +20°C° 0.1 mm 7 mps 729 mmHg 73%
    12:00 +21°C° 0.1 mm 8 mps 729 mmHg 71%
    13:00 +22°C° 0.1 mm 8 mps 728 mmHg 68%
    14:00 +22°C° 0.2 mm 9 mps 728 mmHg 69%
    15:00 +22°C° 0.2 mm 9 mps 727 mmHg 69%
    16:00 +23°C° 0.2 mm 10 mps 727 mmHg 70%
    17:00 +22°C° 1.5 mm 9 mps 727 mmHg 74%
    18:00 +21°C° 1.5 mm 9 mps 727 mmHg 79%
    19:00 +19°C° 1.5 mm 9 mps 727 mmHg 83%
    20:00 +16°C° 2.8 mm 8 mps 728 mmHg 84%
    21:00 +14°C° 2.8 mm 7 mps 729 mmHg 86%
    22:00 +12°C° 2.8 mm 5 mps 730 mmHg 87%
    23:00 +10°C° 0.1 mm 5 mps 732 mmHg 87%

    Day after tomorrow, 24 September, Monday

    Time Temperature Precipitation Wind Pressure Humidity
    00:00 +10°C° 0.1 mm 4 mps 733 mmHg 86%
    01:00 +8°C° 0.1 mm 4 mps 735 mmHg 86%
    02:00 +9°C° 0 mm 3 mps 736 mmHg 87%
    03:00 +8°C° 0 mm 2 mps 737 mmHg 89%
    04:00 +8°C° 0 mm 2 mps 738 mmHg 90%
    05:00 +7°C° 0 mm 2 mps 739 mmHg 91%
    06:00 +8°C° 0 mm 1 mps 740 mmHg 91%
    07:00 +8°C° 0 mm 1 mps 740 mmHg 91%
    08:00 +8°C° 0 mm 2 mps 741 mmHg 83%
    09:00 +10°C° 0 mm 2 mps 741 mmHg 75%
    10:00 +11°C° 0 mm 3 mps 742 mmHg 67%
    11:00 +12°C° 0 mm 3 mps 742 mmHg 59%
    12:00 +13°C° 0 mm 3 mps 742 mmHg 52%
    13:00 +14°C° 0 mm 3 mps 742 mmHg 44%
    14:00 +14°C° 0 mm 3 mps 742 mmHg 43%
    15:00 +14°C° 0 mm 3 mps 742 mmHg 42%
    16:00 +14°C° 0 mm 3 mps 742 mmHg 41%
    17:00 +12°C° 0 mm 3 mps 742 mmHg 47%
    18:00 +12°C° 0 mm 2 mps 742 mmHg 52%
    19:00 +10°C° 0 mm 1 mps 742 mmHg 57%
    20:00 +10°C° 0 mm 1 mps 743 mmHg 60%
    21:00 +9°C° 0 mm 1 mps 743 mmHg 63%
    22:00 +8°C° 0 mm 1 mps 743 mmHg 65%
    23:00 +8°C° 0 mm 1 mps 743 mmHg 69%

    25 September, Tuesday

    Time Temperature Precipitation Wind Pressure Humidity
    00:00 +7°C° 0 mm 2 mps 744 mmHg 72%
    01:00 +6°C° 0 mm 2 mps 744 mmHg 76%
    02:00 +6°C° 0 mm 2 mps 744 mmHg 78%
    03:00 +6°C° 0 mm 2 mps 744 mmHg 80%
    04:00 +5°C° 0 mm 2 mps 744 mmHg 82%
    05:00 +5°C° 0 mm 2 mps 744 mmHg 82%
    06:00 +5°C° 0 mm 2 mps 744 mmHg 82%
    07:00 +5°C° 0 mm 2 mps 744 mmHg 82%
    08:00 +7°C° 0 mm 3 mps 744 mmHg 72%
    09:00 +8°C° 0 mm 4 mps 744 mmHg 62%
    10:00 +10°C° 0 mm 5 mps 744 mmHg 52%
    11:00 +12°C° 0 mm 5 mps 744 mmHg 49%
    12:00 +13°C° 0 mm 5 mps 744 mmHg 45%
    13:00 +14°C° 0 mm 5 mps 744 mmHg 41%
    14:00 +14°C° 0 mm 5 mps 743 mmHg 41%
    15:00 +14°C° 0 mm 5 mps 743 mmHg 42%
    16:00 +14°C° 0 mm 5 mps 742 mmHg 42%
    17:00 +12°C° 0 mm 4 mps 742 mmHg 47%
    18:00 +11°C° 0 mm 4 mps 742 mmHg 52%
    19:00 +9°C° 0 mm 3 mps 742 mmHg 57%
    20:00 +8°C° 0 mm 3 mps 742 mmHg 59%
    21:00 +8°C° 0 mm 3 mps 742 mmHg 61%
    22:00 +7°C° 0 mm 2 mps 742 mmHg 63%
    23:00 +6°C° 0 mm 2 mps 742 mmHg 64%

    26 September, Wednesday

    Time Temperature Precipitation Wind Pressure Humidity
    00:00 +6°C° 0 mm 2 mps 742 mmHg 66%
    01:00 +5°C° 0 mm 2 mps 742 mmHg 67%
    02:00 +5°C° 0 mm 2 mps 741 mmHg 69%
    03:00 +4°C° 0 mm 2 mps 741 mmHg 70%
    04:00 +5°C° 0 mm 1 mps 741 mmHg 71%
    05:00 +5°C° 0 mm 1 mps 741 mmHg 71%
    06:00 +5°C° 0 mm 1 mps 741 mmHg 71%
    07:00 +5°C° 0 mm 1 mps 741 mmHg 71%
    08:00 +9°C° 0 mm 1 mps 741 mmHg 62%
    09:00 +12°C° 0 mm 1 mps 741 mmHg 54%
    10:00 +15°C° 0 mm 1 mps 742 mmHg 45%
    11:00 +18°C° 0 mm 1 mps 742 mmHg 42%
    12:00 +19°C° 0 mm 1 mps 741 mmHg 38%
    13:00 +21°C° 0 mm 1 mps 741 mmHg 35%
    14:00 +21°C° 0 mm 1 mps 741 mmHg 36%
    15:00 +21°C° 0 mm 1 mps 741 mmHg 37%
    16:00 +21°C° 0 mm 1 mps 740 mmHg 38%
    17:00 +19°C° 0 mm 1 mps 740 mmHg 45%
    18:00 +14°C° 0 mm 0 mps 740 mmHg 52%
    19:00 +12°C° 0 mm 0 mps 740 mmHg 59%
    20:00 +11°C° 0 mm 0 mps 740 mmHg 61%
    21:00 +12°C° 0 mm 1 mps 741 mmHg 63%
    22:00 +11°C° 0 mm 1 mps 741 mmHg 65%
    23:00 +11°C° 0 mm 1 mps 741 mmHg 67%

    27 September, Thursday

    Time Temperature Precipitation Wind Pressure Humidity
    00:00 +11°C° 0 mm 1 mps 741 mmHg 69%
    01:00 +11°C° 0 mm 1 mps 741 mmHg 70%
    02:00 +10°C° 0 mm 1 mps 741 mmHg 72%
    03:00 +10°C° 0 mm 1 mps 741 mmHg 73%
    04:00 +10°C° 0 mm 1 mps 740 mmHg 75%
    05:00 +10°C° 0 mm 1 mps 740 mmHg 75%
    06:00 +10°C° 0 mm 1 mps 740 mmHg 76%
    07:00 +10°C° 0 mm 1 mps 740 mmHg 76%
    08:00 +13°C° 0 mm 1 mps 740 mmHg 68%
    09:00 +15°C° 0 mm 1 mps 740 mmHg 59%
    10:00 +19°C° 0 mm 1 mps 741 mmHg 51%
    11:00 +19°C° 0 mm 2 mps 740 mmHg 48%
    12:00 +20°C° 0 mm 2 mps 740 mmHg 44%
    13:00 +23°C° 0 mm 2 mps 740 mmHg 41%
    14:00 +23°C° 0 mm 2 mps 739 mmHg 42%
    15:00 +21°C° 0 mm 2 mps 739 mmHg 43%
    16:00 +21°C° 0 mm 2 mps 738 mmHg 43%
    17:00 +19°C° 0 mm 2 mps 738 mmHg 51%
    18:00 +16°C° 0 mm 1 mps 738 mmHg 58%
    19:00 +14°C° 0 mm 1 mps 738 mmHg 65%
    20:00 +13°C° 0 mm 1 mps 738 mmHg 67%
    21:00 +13°C° 0 mm 1 mps 737 mmHg 69%
    22:00 +11°C° 0 mm 0 mps 737 mmHg 71%
    23:00 +10°C° 0 mm 0 mps 737 mmHg 72%
    Show more